Terminal Aerodrome Forecast
Issued by NWS

Home | Current Version | Previous Version | Text Only | Print | Product List | Glossary On
Versions: 1 2 3 4 5 6 7 8 9 10 11 12 13 14 15
000
FTUS45 KABQ 251100
TAFSAF
TAF
KSAF 251128Z 2512/2612 30005KT P6SM SCT020
      TEMPO 2512/2515 BKN018
     FM251900 26013G23KT P6SM SCT070
     FM260000 24011KT P6SM VCSH BKN070
     FM260400 29005KT P6SM BKN080=

USA.gov is the U.S. government's official web portal to all federal, state and local government web resources and services.